Regional Weather Roundup
Issued by NWS Wilmington, NC

Home | Current Version | Previous Version | Text Only | Print | Product List | Glossary On
Versions: 1 2 3 4 5 6 7 8 9 10 11 12 13 14 15 16 17 18 19 20 21 22 23 24 25 26 27 28 29 30 31 32 33 34 35 36 37 38 39 40 41 42 43 44 45 46 47 48 49
000
ASUS42 KILM 031110
RWRILM
RWRILM
REGIONAL HOURLY WEATHER ROUNDUP
NATIONAL WEATHER SERVICE WILMINGTON NC
600 AM EST TUE MAR 03 2015

NOTE: "FAIR" INDICATES FEW OR NO CLOUDS BELOW 12,000 FEET WITH NO
SIGNIFICANT WEATHER AND/OR OBSTRUCTIONS TO VISIBILITY.

...............WFO WILMINGTON COUNTY WARNING AREA...............

......COASTAL NC AND SC COUNTIES......

CITY           SKY/WX    TMP DP  RH WIND       PRES   REMARKS
WILMINGTON     CLOUDY    44  22  41 NE15      30.34R
SOUTHPORT      CLOUDY    46  32  60 NE9G16    30.32R
N MYRTLE BEACH CLOUDY    46  35  65 NE12      30.30R
MYRTLE BEACH   NOT AVBL

......INLAND NC AND SC COUNTIES.......

CITY           SKY/WX    TMP DP  RH WIND       PRES   REMARKS
LUMBERTON      CLOUDY    42  28  57 NE8       30.34R
ELIZABETHTOWN  LGT RAIN  42  24  50 E5        30.35R
WHITEVILLE     CLOUDY    42  25  51 NE9       30.33R
FLORENCE       CLOUDY    45  37  73 E13       30.31S
DARLINGTON     CLOUDY    45  30  57 E10G18    30.32F

....................REST OF NORTH CAROLINA......................

.........EASTERN NC.........

CITY           SKY/WX    TMP DP  RH WIND       PRES   REMARKS
CAPE HATTERAS  PTCLDY    38  31  76 VRB6      30.36S WCI  33
JACKSONVILLE   CLOUDY    39  23  52 NE12      30.35F WCI  32
MOREHEAD CITY  CLOUDY    39  28  64 NE10G20   30.35F WCI  32
KENANSVILLE    CLOUDY    39  23  52 E3        30.38R
NEW BERN       CLOUDY    38  23  55 NE12      30.38S WCI  30
ELIZABETH CITY CLEAR     33  24  69 NE8       30.40S WCI  26

.........CENTRAL NC.........

CITY           SKY/WX    TMP DP  RH WIND       PRES   REMARKS
RALEIGH DURHAM CLOUDY    39  23  52 E10       30.37R WCI  32
ROCKY MOUNT    CLOUDY    36  23  59 E3        30.39R
ROANOKE RAPIDS NOT AVBL
FAYETTEVILLE   CLOUDY    41  25  53 NE8       30.35R
HOFFMAN        CLOUDY    42  30  62 E7        30.38R

.........WESTERN NC.........

CITY           SKY/WX    TMP DP  RH WIND       PRES   REMARKS
CHARLOTTE      CLOUDY    46  19  34 NE6       30.31R
GREENSBORO     CLOUDY    40  31  70 E7        30.33R
HICKORY        NOT AVBL
BOONE          NOT AVBL
ASHEVILLE      NOT AVBL

.....................REST OF SOUTH CAROLINA.....................

.........EASTERN SC.........

CITY           SKY/WX    TMP DP  RH WIND       PRES   REMARKS
CHARLESTON     CLOUDY    56  51  84 E9        30.25R
BEAUFORT MCAS  CLOUDY    55  53  93 NE5       30.24R
HILTON HEAD    NOT AVBL

.........CENTRAL SC.........

CITY           SKY/WX    TMP DP  RH WIND       PRES   REMARKS
COLUMBIA       CLOUDY    55  51  86 E6        30.26R FOG
ORANGEBURG     CLOUDY    54  49  83 E7        30.26R
SUMTER SHAW    CLOUDY    51  47  86 E9        30.26R

.........WESTERN SC.........

CITY           SKY/WX    TMP DP  RH WIND       PRES   REMARKS
GREENVILLE     NOT AVBL
ROCK HILL      CLOUDY    45  27  49 NE3       30.30R
ANDERSON       CLOUDY    49  32  52 NE8       30.24S
CLEMSON        NOT AVBL
GREENWOOD      CLOUDY    51  40  65 NE7       30.26R


...................COASTAL AND OFFSHORE REPORTS..................

................LOCAL PIERS AND NC RESERVE................


STATION/POSITION TIME  SKY/WX   TEMP    WIND        PRES    VSBY
                                AIR SEA DIR/SP/G
                 (UTC)          (F)     (DEG/KT/KT) (MB)    (MI)
JOHNY MRCER PIER 1100                    50/ 20/ 23   N/A
NC RESRV MASNBRO 1000            45      50/ 15     1025.0S
OCEAN CREST PIER 1100            46 46   10/ 12/ 20 1025.8R
SPRINGMAID  PIER 1100                    30/ 16/ 18   N/A


................COASTAL AND OFFSHORE BUOYS................


STATION/POSITION TIME  SKY/WX   TEMP    WIND        PRES    VSBY
                                AIR SEA DIR/SP/G
                 (UTC)          (F)     (DEG/KT/KT) (MB)    (MI)
DIMNDSHOAL 41025 NOT AVBL
CAPE LOOKOUT     1100            42      30/ 19/ 22 1027.4R
ONSLOW BAY 41036 NOT AVBL
5 WRITEBCH 41038 NOT AVBL
MASONBORO  41110 1100               46                N/A
WVE H/P(F/S)=  6/ 6 WND WVE H/P(F/S)=  5/ 6

WILM HARBR 41108 1100               47                N/A
WVE H/P(F/S)=  4/ 6 WND WVE H/P(F/S)=  3/ 6

27WRITEBCH 41037 NOT AVBL
FRYING PAN 41013 1100            58 61   70/ 19/ 23 1025.0R
WVE H/P(F/S)=  6/ 6 WND WVE H/P(F/S)=  5/ 6 SWL H/P/D(F/S/D)=  2/150/ 9

SUNST NRSH 41024 1000            45      70/ 12/ 16   N/A
CAPRS NRSH 41029 NOT AVBL
EDISTO     41004 1100            67 68   80/ 12/ 16 1023.5R
WVE H/P(F/S)=  4/ 9 WND WVE H/P(F/S)=  3/ 5 SWL H/P/D(F/S/D)=  3/ 9



..........OFFSHORE BUOYS BEYOND 100 NM OFFSHORE...........
.....IN A TRIANGLE---HAT TO BERMUDA TO BAHAMAS TO HAT.....


STATION/POSITION TIME  SKY/WX   TEMP    WIND        PRES    VSBY
                                AIR SEA DIR/SP/G
                 (UTC)          (F)     (DEG/KT/KT) (MB)    (MI)
150E HAT   41001 NOT AVBL
W BERMUDA  41048 0956            62 68   10/ 17/ 23 1022.9R
WVE H/P(F/S)=  7/ 6 WND WVE H/P(F/S)=  7/ 6 SWL H/P/D(F/S/D)=  3/130/ 9

ATLANTIC S 41049 1047            72 74  300/  4/  6 1020.4R
WVE H/P(F/S)=  6/11 WND WVE H/P(F/S)=  2/ 4 SWL H/P/D(F/S/D)=  7/ 80/11

E BAHAMAS  41046 1015            75 78   70/ 12/ 16 1020.0
WVE H/P(F/S)=  7/ 9 WND WVE H/P(F/S)=  3/ 5 SWL H/P/D(F/S/D)=  7/ 60/ 9

NE BAHAMAS 41047 1019            71 73   10/  6/  6 1022.5R
WVE H/P(F/S)=  5/ 8 WND WVE H/P(F/S)=  2/ 4 SWL H/P/D(F/S/D)=  5/ 80/ 8

120E CANVRL41010 1100            72 75   40/  8/ 10 1023.3R
WVE H/P(F/S)=  4/ 9 SWL H/P/D(F/S/D)=  3/100/ 9


END



USA.gov is the U.S. government's official web portal to all federal, state and local government web resources and services.